Timeline UpdatesTrip UpdatesNews PostsPvt Posts♥♥Travel TipsAdmin PostsConv PostsFollowed PostsChat RequestsBlog PostsPNR Posts

Disclaimer
Search
 
 
Sat Nov 1, 2014 02:21:01 ISTHomeTrainsΣChainsAtlasPNRForumGalleryNewsFAQTripsMembersLoginFeedback
No Recent News for this Train
Other Trains in the News **new
Latest...
.
Tue Jan 15, 2013 (02:24AM)
⇐ Return Journey: Train# 54251

54252/Saharanpur-Lucknow Passenger

Time-Table HAS CHANGED.
Oct 18 (7:12AM)
Change Departure Station:
Change Arrival Station:
Post a Train Travel TipPost a Train Travel Tip **new
Post a Comment/Question/Picture/VideoPost a Comment/Question/Picture/Video
Pantry/Catering
✕ NO Pantry Car
✕ NO Catering
RSA - Rake Sharing
54232/54233/54251/54252/54253/54254
Rake/Coach Composition
.
Loco
GZB WAP1
News    PNR    Forum    Time-Table    Availability    Fare Chart    Map    Arr/Dep History    Trips    Gallery    ΣChains    X/O    Timeline    
Travel Time: 10h 30m    37 halts    Distance: 265 km    Avg Speed: 25 km/hr
Type: Passenger
Zone: NR/Northern
Departs @ 08:15 (Avg on time)
Platform# ???
SMTWTFS
Saharanpur Junction/SRE 
Arrives @ 18:45 (Avg 1h 43m late)
Platform# ???
SMTWTFS
Dhaneta/DAN 

37 halts. 44 intermediate Stations between Saharanpur Junction and Dhaneta

Show ALL intermediate Stations  Show Old Time-Table

#TrkCodeStation NameX/OArrivesAvgDepartsAvgHaltPFDay#KmSpeedElevZoneAddress
1/==/SRESaharanpur Junction (6)»  -08:15+0--10.035276mNRSaharanpur, Uttar Pradesh
2/==/BAEBaliakheri  08:27 08:32+808:29 08:34+102m--110.043274mNRSaharanpur, Uttar Pradesh
3/==/CDLChodialaX  08:45 08:49+1008:47 08:51+112m--120.744270mNRMDR 163W, Uttar Pradesh
4/==/IQBIqbalpurXO  08:55 09:00+1108:57 09:02+162m--127.221267mNRNational Highway 73, Uttar Pradesh
5/==/RKRoorkee (3)X  09:06 09:23+509:08 09:25+132m1134.717264mNRRoorkee - 247667, Uttarakhand
6/==/DNRADhandhera (2)X  09:19 09:35+1309:21 09:37+132m--137.543267mNRRoorkee - 247667, Uttarakhand
7/==/LDRLandaura (2)  09:27 09:44+1309:29 09:46+182m--142.543261mNRHaridwar, Uttarakhand
8/==/DSNIDausni (2)X  09:35 09:53+1909:37 09:55+212m--147.520244mNRLaksar, Uttarakhand
9/==/LRJLaksar Junction (4)XO  10:10+1511:15+2765m1152.569238mNRLaksar, Uttarakhand
10/==/RSIRaisi  11:22 11:25+3111:24 11:27+322m--163.934231mNRLaksar, Uttarakhand
11/==/BLWBalawali (2)  11:33 11:37+3111:35 11:39+332m--169.641242mNRNational Highway 119, Uttar Pradesh
12/==/CNKChandok (2)  11:43 11:49+3111:45 11:51+312m--176.592257mNRChandok, Uttar Pradesh
13|--|MZMMuzzampur Narayan (3)  11:53 11:59+3411:55 12:01+352m--188.740258mNRJunction Point - NBD/LRJ/BJO, Uttar Pradesh
14|--|FZLFazalpur (2)  12:02 12:09+3412:04 12:11+342m--194.131256mNRState Highway 49, Uttar Pradesh
15|--|NBDNajibabad Junction (3)  12:15 12:22+2612:25 12:27+2910 5m3199.878269mNRNajibabad, Uttar Pradesh
16/==/MSDRMurshadpurX  12:31 12:34+3912:33 12:36+412m--1108.931258mNRNagina, Uttar Pradesh
17/==/BEKBundkiX  12:40 12:43+4312:42 12:45+522m--1112.459255mNRNagina, Uttar Pradesh
18/==/NGGNagina (3)X  12:50 12:55+5512:55 12:57+565 2m--1122.335247mNRNagina, Uttar Pradesh
19/==/PNIPuraini  13:05 13:07+5513:07 13:09+562m--1128.142246mNRDhampur, Uttar Pradesh
20/==/HBWHabibwala  13:14 13:17+5613:16 13:19+582m--1133.745239mNRNagina, Uttar Pradesh
21/==/DPRDhampur  13:22 13:26+5513:27 13:28+1:025 2m--1139.035236mNRDhampur, Uttar Pradesh
22/==/CAJChakraj MalX  13:38 13:40+1:0313:40 13:42+1:032m--1146.144229mNRNagina, Uttar Pradesh
23/==/SEOSeoharaO  13:45 13:51+1:0313:50 13:53+1:135 2m--1152.838224mNRSeohara, Uttar Pradesh
24/==/MWEMewa NawadaX  14:08 14:09+1:0914:10 14:11+1:092m--1162.949221mNRSahaspur, Uttar Pradesh
25/==/KNTKanth  14:15 14:19+1:0914:20 14:21+1:155 2m--1169.440221mNRKanth, Uttar Pradesh
26/==/MTBMatlabpur  14:34+1:1314:36+1:182m--1178.036216mNRMoradabad, Uttar Pradesh
27/==/AWPAghwanpur  14:48 14:52+1:1614:50 14:54+1:172m--1187.643212mNRMoradabad, Uttar Pradesh
28/==/HRHHarthalaX  14:56 15:02+1:1614:59 15:04+1:213 2m--1193.38206mNRMoradabad, Uttar Pradesh
29/==/MBMoradabad Junction (7)XO15:45+4617:00+3675m--1198.745201mNRMoradabad, Uttar Pradesh
30/==/KGFKathghar  17:06 17:05+5117:07+521 2m--1202.546199mNRMoradabad, Uttar Pradesh
31/==/DLPDalpatpur  17:18+5917:20+1:042m--1210.948195mNRNH-24, Uttar Pradesh
32/==/MPHMundha PandeX  17:27 17:28+1:0617:29 17:30+1:132m--1217.352191mNRNH 24, Uttar Pradesh
33/==/RMURampur Junction (3)  17:40+1:1117:42+1:262m--1226.035190mNRRampur, Uttar Pradesh
34/==/SARShahzad NagarO  17:53+1:3217:55+1:342m--1232.540186mNRNH 24, Uttar Pradesh
35/==/DAMDhamora  18:02 18:03+1:3418:04 18:05+1:382m--1237.941183mNRNH 24, Uttar Pradesh
36/==/DUNDuganpur  18:11 18:13+1:3718:13 18:15+1:362m--1243.350180mNRNH 24, Uttar Pradesh
37/==/MILMilak  18:22+1:3618:24+1:402m--1249.150180mNRMilak, Uttar Pradesh
38/==/NRSNagaria SadatX  18:34+1:4118:36+1:412m--1257.448177mNRNagaria Sadat, Uttar Pradesh
39/==/DANDhaneta•O  18:44 18:45+1:4318:46 18:47+1:492m--1264.641174mNRNH 24, Uttar Pradesh
40/==/BTOBhitaura  18:53 18:56+1:4818:55 18:58+1:492m--1270.840173mNRFatehganj Pashchimi, Uttar Pradesh
41/==/PKRAParsa KheraX  19:02 19:06+1:4919:04 19:08+1:492m--1276.143170mNRNH 24, Uttar Pradesh
42/==/CBJClutterbuckGanjXO  19:11 19:15+1:5019:13 19:17+1:522m--1281.29172mNRBareilly, Uttar Pradesh
43/==/BEBareilly Junction (4)X  20:10+5820:20+1:0010m11289.038174mNRBareilly, Uttar Pradesh
44/==/CHTIChanehti Junction  20:25 20:26+1:2820:27 20:28+1:282m--1292.844168mNRBareilly, Uttar Pradesh
45/==/RYSRasuriyaX  20:35 20:37+1:1920:37 20:39+1:202m--1299.557174mNRNH 24, Uttar Pradesh
46/==/PMRPitambarpur (3)  20:46 20:49+1:1520:48 20:51+1:162m--1308.957171mNRPitambarpur, Uttar Pradesh
47/==/TSATisua  20:57 21:00+1:2220:59 21:02+1:262m--1317.553165mNRNational Highway 24, Uttar Pradesh
48/==/BLPUBilpurX  21:07 21:10+1:2521:09 21:12+1:292m--1324.554161mNRFatehganj, Uttar Pradesh
49/==/MKMiranpur Katra  21:17 21:20+1:2921:19 21:22+1:292m--1331.742162mNRShahjahanpur, Uttar Pradesh
50/==/TLHTilharX  21:31 21:36+1:2421:33 21:38+1:362m--1341.442163mNRTilhar, Uttar Pradesh
51/==/BTRABanthraX  21:35 21:52+1:3421:37 21:54+1:412m--1351.136154mNRNH 24, Uttar Pradesh
52/==/SPNShahjahanpur Junction (3)  22:05 22:08+1:2422:10 22:13+1:345m--1359.555156mNRShahjahanpur, Uttar Pradesh
53/=-|ROZARoza Junction (4)X  22:18 22:21+1:5622:20 22:23+2:052m--1366.926156mNRShahjahanpur, Uttar Pradesh
54/==/KHKahiliyaX  22:45 22:43+2:0222:47 22:45+2:122m--1375.457152mNRSH 25, Uttar Pradesh
55/==/AIGAlgawanXO  22:56 22:54+2:1022:58 22:56+2:132m--1384.047152mNRAlgawan, Uttar Pradesh
56/==/AJIAnjhi ShahabadO  23:05 23:04+2:0523:07 23:06+2:092m--1390.264148mNRAnjhi Shahabad, Uttar Pradesh
57/==/TDPTodarpurX  23:15 23:14+2:1823:17 23:16+2:182m--1398.755147mNRSH 25, Uttar Pradesh
58/==/BEGBehtagokulX  23:24 23:23+2:1923:26 23:25+2:282m--1405.259152mNRBehtagokul, Uttar Pradesh
59/==/KUFKaurhaX  23:35 23:34+2:2823:37 23:36+2:312m--1414.050148mNRSH 25, Uttar Pradesh
60/==/HRIHardoi (5)  23:59 23:46+2:1800:01 23:48+2:312m--1422.445146mNRHardoi, Uttar Pradesh
61/==/KARKarnaX  00:14 00:01+2:4300:16 00:03+2:482m--2432.356143mNRHardoi, Uttar Pradesh
62/==/MSTMasit  00:24 00:11+2:4700:26 00:13+2:472m--2439.852141mNRSH 25, Uttar Pradesh
63/==/BGHBaghauliX  00:34 00:21+2:3600:36 00:23+2:432m--2446.758141mNRsharda nehar, Uttar Pradesh
64/==/BLMBalamau Junction (4)X  00:42 00:32+2:5900:47 00:34+2:595 2m--2455.543139mNRBalamau, Uttar Pradesh
65/==/DLQDalelnagar  00:59 00:46+2:5501:01 00:48+2:552m--2464.148136mNRSH 25, Uttar Pradesh
66/==/UTAUmar TaliX  01:08 00:56+2:5401:10 00:58+3:102m--2470.540135mNRHardoi, Uttar Pradesh
67/==/SANSandila (3)  01:17 01:06+2:5701:19 01:08+3:042m--2475.860132mNRSandila, Uttar Pradesh
68/==/RBDRahimabadX  01:31 01:19+3:1701:33 01:21+3:282m--2486.851132mNRSH 25, Uttar Pradesh
69/==/DILDilawarnagarXO  01:41 01:30+3:2801:43 01:32+3:332m--2494.443133mNRSH 25, Uttar Pradesh
70/==/MLDMalihabadX  01:50 01:40+3:4001:52 01:42+4:302m--2500.158130mNRMalihabad, Uttar Pradesh
71/==/KKJKakori (3)XO  02:01 01:52+4:0602:03 01:54+4:152m--2509.74129mNRSH 25, Uttar Pradesh
72/==/AMGAlamnagar (3)O  03:42 03:41+2:2403:43+2:321 2m--2517.319126mNRLucknow, Uttar Pradesh
73/==/LKOLucknow Charbagh NR (9)  04:05+1:59-72524.3- NR226004, Uttar Pradesh
Scroll to Top
Scroll to Bottom